This demonstration page uses our WeatherBlox Daily Observations layout. Learn more.

Left ArrowRight Arrow

Hourly Observations for May 10, 2017

Temp ( °F °C ) Dew Point ( °F °C ) Humidity (%) Winds ( mph kmh ) Pressure ( in mb ) Visibility ( mi km ) Precip ( " mm )
12:45 am 00:45 Mostly Clear with Nearby Thunderstorms 75 23.9 63 17.2 66 66 SSE 24 39 29.59 1002 7 11 0.00 0.00
12:53 am 00:53 Partly Cloudy with Nearby Thunderstorms 75 23.9 63 17.2 66 66 S 28 44 29.63 1003 7 11 0.00 0.00
1:00 am 01:00 Mostly Cloudy 75 24 63 17 65 65 S 26 43 29.62 1003 7 11 0.00 0.00
1:06 am 01:06 Mostly Cloudy with Nearby Thunderstorms 75 24 63 17 65 65 S 22 35 29.62 1003 7 11 0.00 0.00
1:23 am 01:23 Windy with Storms Likely 74 23.3 64 17.8 71 71 S 28 44 29.62 1003 7 11 0.00 0.03
1:53 am 01:53 Windy with Storms Likely 72 22.2 65 18.3 79 79 S 25 41 29.64 1004 6 10 0.01 0.25
2:03 am 02:03 Windy with Storms Likely 72 22 64 18 78 78 S 23 37 29.65 1004 7 11 0.00 0.00
2:13 am 02:13 Partly Cloudy with Light Rain 72 22.2 65 18.3 79 79 S 22 35 29.65 1004 7 11 0.00 0.03
2:36 am 02:36 Mostly Clear with Nearby Thunderstorms 73 22.8 65 18.3 76 76 SSE 18 30 29.62 1003 7 11 0.00 0.03
2:53 am 02:53 Clear with Nearby Thunderstorms 72 22.2 65 18.3 79 79 S 17 28 29.64 1004 7 11 0.00 0.03
3:05 am 03:05 Clear 71 21.7 49 9.4 46 46 SSW 12 19 29.65 1004 10 16 0.00 0.00
3:53 am 03:53 Mostly Clear 66 18.9 47 8.3 50 50 SSW 8 13 29.66 1004 10 16 0.00 0.00
4:53 am 04:53 Clear 63 17.2 43 6.1 48 48 WSW 12 19 29.67 1005 10 16 0.00 0.00
5:53 am 05:53 Mostly Clear 59 15 44 6.7 58 58 WSW 7 11 29.71 1006 10 16 0.00 0.00
6:53 am 06:53 Mostly Clear 56 13.3 44 6.7 65 65 WSW 8 13 29.75 1007 10 16 0.00 0.00
7:53 am 07:53 Cloudy 60 15.6 45 7.2 58 58 WSW 7 11 29.78 1009 10 16 0.00 0.00
8:53 am 08:53 Sunny 66 18.9 45 7.2 47 47 WNW 10 17 29.80 1009 10 16 0.00 0.00
9:53 am 09:53 Sunny 71 21.7 40 4.4 32 32 WNW 13 20 29.80 1009 10 16 0.00 0.00
10:53 am 10:53 Sunny 74 23.3 36 2.2 25 25 NW 13 20 29.80 1009 10 16 0.00 0.00
11:53 am 11:53 Sunny 77 25 35 1.7 22 22 NW 12 19 29.80 1009 10 16 0.00 0.03
12:53 pm 12:53 Sunny 78 25.6 32 0 19 19 VRB 3 6 29.78 1009 10 16 0.00 0.00
1:53 pm 13:53 Sunny 82 27.8 29 -1.7 14 14 W 15 24 29.77 1008 10 16 0.00 0.00

Powered by AerisWeather